JLY7044 SBSV-SBCF

Flight info

Callsign JLY7044
Flight time 1h 16m
Altitude 34000
Route GILDO UZ21 OPTEB
Aircraft A320/M-SDE3FGHIRWY/LB1

Departure

Time 2026-05-03 20:54
Airport Deputado Luiz Eduardo Magalhães International Airport (SBSV)

Arrival

Time 2026-05-03 22:10
Airport Tancredo Neves International Airport (SBCF)
Time Latitude Longitude Altitude Speed Heading
2026-05-03 20:41 -12.91363 -38.33358 43 ft 0 kts 173°
2026-05-03 20:45 -12.91362 -38.33358 43 ft 2 kts 173°
2026-05-03 20:45 -12.91336 -38.33363 42 ft 4 kts 161°
2026-05-03 20:45 -12.91313 -38.33375 41 ft 4 kts 130°
2026-05-03 20:46 -12.91306 -38.33393 43 ft 1 kts 79°
2026-05-03 20:49 -12.91302 -38.33371 39 ft 6 kts 79°
2026-05-03 20:49 -12.91294 -38.33332 44 ft 5 kts 75°
2026-05-03 20:50 -12.91267 -38.33312 44 ft 6 kts
2026-05-03 20:50 -12.91222 -38.33334 44 ft 9 kts 317°
2026-05-03 20:50 -12.91193 -38.33384 43 ft 2 kts 300°
2026-05-03 20:50 -12.91183 -38.33403 43 ft 4 kts 300°
2026-05-03 20:51 -12.91159 -38.33435 43 ft 7 kts 327°
2026-05-03 20:51 -12.91113 -38.33450 43 ft 6 kts 33°
2026-05-03 20:51 -12.91089 -38.33408 43 ft 0 kts 77°
2026-05-03 20:53 -12.91059 -38.33262 42 ft 58 kts 78°
2026-05-03 20:53 -12.90933 -38.32632 52 ft 120 kts 78°
2026-05-03 20:53 -12.90728 -38.31619 54 ft 168 kts 80°
2026-05-03 20:54 -12.90492 -38.30435 682 ft 166 kts 82°
2026-05-03 20:54 -12.90005 -38.27945 1497 ft 199 kts 82°
2026-05-03 20:54 -12.89733 -38.26463 1785 ft 224 kts 83°
2026-05-03 20:55 -12.89720 -38.24832 2157 ft 243 kts 110°
2026-05-03 20:55 -12.90744 -38.23424 2804 ft 252 kts 147°
2026-05-03 20:55 -12.92407 -38.22946 3610 ft 259 kts 182°
2026-05-03 20:55 -12.94105 -38.23578 4448 ft 269 kts 216°
2026-05-03 20:56 -12.95267 -38.25107 5263 ft 278 kts 239°
2026-05-03 20:56 -12.96192 -38.26867 6075 ft 281 kts 233°
2026-05-03 20:56 -12.97517 -38.28325 6816 ft 281 kts 217°
2026-05-03 20:56 -12.99013 -38.29629 7593 ft 284 kts 217°
2026-05-03 20:57 -13.00535 -38.30943 8347 ft 288 kts 217°
2026-05-03 20:57 -13.02086 -38.32279 9088 ft 293 kts 218°
2026-05-03 20:57 -13.03660 -38.33638 9820 ft 298 kts 218°
2026-05-03 20:57 -13.05265 -38.35027 10295 ft 311 kts 218°
2026-05-03 20:58 -13.06960 -38.36490 10464 ft 334 kts 218°
2026-05-03 20:58 -13.08804 -38.38080 10593 ft 357 kts 218°
2026-05-03 20:58 -13.10758 -38.39768 10714 ft 377 kts 218°
2026-05-03 20:58 -13.12813 -38.41547 10864 ft 394 kts 218°
2026-05-03 20:59 -13.14933 -38.43385 11273 ft 402 kts 218°
2026-05-03 20:59 -13.17075 -38.45244 11800 ft 406 kts 218°
2026-05-03 20:59 -13.19238 -38.47122 12311 ft 409 kts 218°
2026-05-03 20:59 -13.21421 -38.49021 12826 ft 412 kts 218°
2026-05-03 21:00 -13.23621 -38.50936 13322 ft 415 kts 218°
2026-05-03 21:00 -13.24333 -38.51555 13487 ft 416 kts 218°
2026-05-03 21:00 -13.28024 -38.54766 14215 ft 420 kts 218°
2026-05-03 21:00 -13.30262 -38.56712 14632 ft 423 kts 218°
2026-05-03 21:01 -13.32517 -38.58667 15053 ft 425 kts 218°
2026-05-03 21:01 -13.34783 -38.60629 15463 ft 427 kts 218°
2026-05-03 21:01 -13.37054 -38.62611 15858 ft 430 kts 219°
2026-05-03 21:01 -13.39298 -38.64651 16252 ft 432 kts 220°
2026-05-03 21:02 -13.41552 -38.66710 16653 ft 434 kts 220°
2026-05-03 21:02 -13.43822 -38.68767 17038 ft 437 kts 220°
2026-05-03 21:02 -13.46112 -38.70830 17421 ft 439 kts 220°
2026-05-03 21:02 -13.48414 -38.72900 17798 ft 441 kts 220°
2026-05-03 21:03 -13.50731 -38.74977 18175 ft 443 kts 220°
2026-05-03 21:03 -13.53064 -38.77065 18509 ft 446 kts 220°
2026-05-03 21:03 -13.55409 -38.79162 18825 ft 448 kts 220°
2026-05-03 21:03 -13.57726 -38.81314 19129 ft 451 kts 225°
2026-05-03 21:04 -13.59557 -38.83930 19419 ft 455 kts 243°
2026-05-03 21:04 -13.60860 -38.86909 19727 ft 457 kts 245°
2026-05-03 21:04 -13.62132 -38.89872 20024 ft 459 kts 245°
2026-05-03 21:04 -13.63422 -38.92879 20322 ft 461 kts 245°
2026-05-03 21:05 -13.64875 -38.95819 20606 ft 462 kts 235°
2026-05-03 21:05 -13.66825 -38.98448 20890 ft 463 kts 230°
2026-05-03 21:05 -13.68844 -39.01057 21188 ft 465 kts 230°
2026-05-03 21:05 -13.70177 -39.02777 21392 ft 465 kts 230°
2026-05-03 21:06 -13.72883 -39.06266 21797 ft 467 kts 230°
2026-05-03 21:06 -13.74224 -39.07996 21976 ft 468 kts 230°
2026-05-03 21:06 -13.76930 -39.11488 22334 ft 471 kts 231°
2026-05-03 21:06 -13.78972 -39.14127 22593 ft 472 kts 231°
2026-05-03 21:07 -13.81023 -39.16778 22851 ft 474 kts 231°
2026-05-03 21:07 -13.82387 -39.18541 23006 ft 475 kts 231°
2026-05-03 21:07 -13.85144 -39.22109 23331 ft 477 kts 231°
2026-05-03 21:07 -13.86514 -39.23880 23488 ft 478 kts 231°
2026-05-03 21:08 -13.88588 -39.26562 23699 ft 480 kts 231°
2026-05-03 21:08 -13.90664 -39.29253 23899 ft 481 kts 231°
2026-05-03 21:08 -13.92747 -39.31952 24105 ft 482 kts 231°
2026-05-03 21:08 -13.94816 -39.34636 24303 ft 483 kts 231°
2026-05-03 21:09 -13.96935 -39.37383 24504 ft 485 kts 231°
2026-05-03 21:09 -13.99010 -39.40070 24695 ft 486 kts 231°
2026-05-03 21:09 -14.01119 -39.42800 24921 ft 486 kts 231°
2026-05-03 21:09 -14.03222 -39.45526 25220 ft 485 kts 232°
2026-05-03 21:10 -14.05322 -39.48249 25505 ft 484 kts 232°
2026-05-03 21:10 -14.07417 -39.50964 25800 ft 484 kts 232°
2026-05-03 21:10 -14.09511 -39.53681 26105 ft 483 kts 232°
2026-05-03 21:10 -14.11600 -39.56393 26412 ft 482 kts 232°
2026-05-03 21:11 -14.13685 -39.59100 26735 ft 481 kts 232°
2026-05-03 21:11 -14.15764 -39.61803 27067 ft 480 kts 232°
2026-05-03 21:11 -14.17836 -39.64502 27393 ft 480 kts 232°
2026-05-03 21:11 -14.19904 -39.67196 27718 ft 479 kts 232°
2026-05-03 21:12 -14.21971 -39.69884 28055 ft 478 kts 232°
2026-05-03 21:12 -14.24035 -39.72567 28406 ft 477 kts 232°
2026-05-03 21:12 -14.26075 -39.75216 28738 ft 477 kts 232°
2026-05-03 21:12 -14.28133 -39.77889 29080 ft 476 kts 232°
2026-05-03 21:13 -14.30191 -39.80565 29426 ft 475 kts 232°
2026-05-03 21:13 -14.32238 -39.83233 29783 ft 474 kts 233°
2026-05-03 21:13 -14.34278 -39.85900 30136 ft 473 kts 233°
2026-05-03 21:13 -14.36320 -39.88568 30455 ft 472 kts 232°
2026-05-03 21:14 -14.38356 -39.91223 30776 ft 471 kts 232°
2026-05-03 21:14 -14.40387 -39.93869 31099 ft 469 kts 232°
2026-05-03 21:14 -14.42386 -39.96475 31418 ft 468 kts 232°
2026-05-03 21:14 -14.44428 -39.99142 31745 ft 467 kts 232°
2026-05-03 21:15 -14.46414 -40.01734 32056 ft 466 kts 232°
2026-05-03 21:15 -14.48447 -40.04390 32399 ft 465 kts 233°
2026-05-03 21:15 -14.50424 -40.06976 32746 ft 463 kts 233°
2026-05-03 21:15 -14.52414 -40.09577 33088 ft 462 kts 233°
2026-05-03 21:16 -14.54405 -40.12184 33426 ft 460 kts 233°
2026-05-03 21:16 -14.56387 -40.14775 33769 ft 459 kts 233°
2026-05-03 21:16 -14.58428 -40.17308 34011 ft 459 kts 227°
2026-05-03 21:16 -14.60798 -40.19546 34059 ft 465 kts 219°
2026-05-03 21:17 -14.65144 -40.22846 34068 ft 468 kts 217°
2026-05-03 21:17 -14.71287 -40.27495 34068 ft 469 kts 217°
2026-05-03 21:18 -14.76550 -40.31490 34071 ft 469 kts 217°
2026-05-03 21:18 -14.81787 -40.35474 34072 ft 469 kts 218°
2026-05-03 21:19 -14.87035 -40.39469 34081 ft 468 kts 217°
2026-05-03 21:19 -14.92278 -40.43452 34075 ft 467 kts 217°
2026-05-03 21:20 -14.97514 -40.47436 34074 ft 467 kts 218°
2026-05-03 21:20 -15.02758 -40.51425 34069 ft 467 kts 217°
2026-05-03 21:21 -15.07955 -40.55386 34075 ft 466 kts 218°
2026-05-03 21:21 -15.13174 -40.59380 34077 ft 466 kts 218°
2026-05-03 21:22 -15.18401 -40.63357 34069 ft 466 kts 218°
2026-05-03 21:22 -15.23614 -40.67338 34074 ft 465 kts 218°
2026-05-03 21:23 -15.28791 -40.71301 34081 ft 465 kts 218°
2026-05-03 21:23 -15.34008 -40.75289 34086 ft 465 kts 218°
2026-05-03 21:24 -15.39217 -40.79265 34084 ft 465 kts 218°
2026-05-03 21:24 -15.44422 -40.83257 34087 ft 465 kts 218°
2026-05-03 21:25 -15.49620 -40.87240 34090 ft 465 kts 218°
2026-05-03 21:25 -15.54781 -40.91193 34096 ft 464 kts 218°
2026-05-03 21:26 -15.59973 -40.95175 34097 ft 463 kts 218°
2026-05-03 21:26 -15.65153 -40.99151 34094 ft 463 kts 218°
2026-05-03 21:27 -15.70332 -41.03126 34085 ft 463 kts 218°
2026-05-03 21:27 -15.75511 -41.07109 34093 ft 463 kts 218°
2026-05-03 21:28 -15.80683 -41.11081 34094 ft 462 kts 218°
2026-05-03 21:28 -15.85861 -41.15062 34095 ft 462 kts 218°
2026-05-03 21:29 -15.91022 -41.19044 34094 ft 461 kts 218°
2026-05-03 21:29 -15.96174 -41.23016 34092 ft 461 kts 218°
2026-05-03 21:30 -16.01291 -41.26962 34088 ft 460 kts 218°
2026-05-03 21:30 -16.06440 -41.30925 34088 ft 460 kts 218°
2026-05-03 21:31 -16.11590 -41.34892 34084 ft 460 kts 218°
2026-05-03 21:31 -16.16732 -41.38870 34085 ft 461 kts 218°
2026-05-03 21:32 -16.21885 -41.42853 34093 ft 460 kts 219°
2026-05-03 21:32 -16.27030 -41.46832 34090 ft 460 kts 219°
2026-05-03 21:33 -16.32172 -41.50812 34090 ft 460 kts 219°
2026-05-03 21:33 -16.37276 -41.54763 34089 ft 460 kts 219°
2026-05-03 21:34 -16.42406 -41.58738 34090 ft 459 kts 219°
2026-05-03 21:34 -16.47541 -41.62717 34084 ft 459 kts 219°
2026-05-03 21:35 -16.52671 -41.66700 34085 ft 459 kts 219°
2026-05-03 21:35 -16.57794 -41.70679 34084 ft 459 kts 219°
2026-05-03 21:36 -16.62889 -41.74630 34089 ft 459 kts 219°
2026-05-03 21:36 -16.68008 -41.78612 34077 ft 459 kts 219°
2026-05-03 21:37 -16.73124 -41.82600 34075 ft 458 kts 219°
2026-05-03 21:37 -16.78232 -41.86580 34066 ft 458 kts 219°
2026-05-03 21:38 -16.83345 -41.90552 34075 ft 458 kts 219°
2026-05-03 21:38 -16.88449 -41.94535 34068 ft 458 kts 219°
2026-05-03 21:39 -16.93559 -41.98513 34064 ft 458 kts 219°
2026-05-03 21:39 -16.98662 -42.02496 34065 ft 458 kts 219°
2026-05-03 21:40 -17.03731 -42.06465 34063 ft 458 kts 219°
2026-05-03 21:40 -17.08842 -42.10462 34075 ft 458 kts 219°
2026-05-03 21:41 -17.13952 -42.14460 34073 ft 459 kts 219°
2026-05-03 21:41 -17.19066 -42.18473 34078 ft 459 kts 219°
2026-05-03 21:42 -17.24179 -42.22485 34082 ft 459 kts 219°
2026-05-03 21:42 -17.29262 -42.26465 34094 ft 459 kts 219°
2026-05-03 21:43 -17.34379 -42.30476 34107 ft 459 kts 220°
2026-05-03 21:43 -17.39489 -42.34494 34109 ft 459 kts 220°
2026-05-03 21:44 -17.44594 -42.38512 34112 ft 459 kts 220°
2026-05-03 21:44 -17.49698 -42.42530 34116 ft 459 kts 220°
2026-05-03 21:45 -17.54809 -42.46544 34112 ft 458 kts 220°
2026-05-03 21:45 -17.59900 -42.50557 34112 ft 457 kts 220°
2026-05-03 21:46 -17.64986 -42.54569 34108 ft 457 kts 220°
2026-05-03 21:46 -17.70040 -42.58555 34120 ft 457 kts 220°
2026-05-03 21:47 -17.75121 -42.62574 34112 ft 457 kts 220°
2026-05-03 21:47 -17.80203 -42.66580 34107 ft 457 kts 220°
2026-05-03 21:48 -17.85281 -42.70591 34110 ft 456 kts 220°
2026-05-03 21:48 -17.90352 -42.74606 34105 ft 456 kts 220°
2026-05-03 21:49 -17.95392 -42.78596 34098 ft 457 kts 220°
2026-05-03 21:49 -18.00460 -42.82613 34098 ft 457 kts 220°
2026-05-03 21:50 -18.05537 -42.86630 34105 ft 457 kts 220°
2026-05-03 21:50 -18.10615 -42.90656 34107 ft 457 kts 220°
2026-05-03 21:51 -18.15686 -42.94691 34120 ft 456 kts 221°
2026-05-03 21:51 -18.20743 -42.98722 34120 ft 456 kts 221°
2026-05-03 21:52 -18.25796 -43.02744 34122 ft 455 kts 220°
2026-05-03 21:52 -18.30851 -43.06758 34106 ft 455 kts 220°
2026-05-03 21:53 -18.35898 -43.10769 34112 ft 454 kts 221°
2026-05-03 21:53 -18.40934 -43.14782 34110 ft 454 kts 221°
2026-05-03 21:54 -18.45974 -43.18782 34107 ft 453 kts 220°
2026-05-03 21:54 -18.51023 -43.22781 34109 ft 453 kts 220°
2026-05-03 21:55 -18.56035 -43.26733 34117 ft 453 kts 221°
2026-05-03 21:55 -18.58583 -43.28746 33407 ft 450 kts 221°
2026-05-03 21:55 -18.61064 -43.30715 31788 ft 456 kts 221°
2026-05-03 21:56 -18.63593 -43.32726 30747 ft 451 kts 220°
2026-05-03 21:56 -18.66069 -43.34688 29784 ft 442 kts 220°
2026-05-03 21:56 -18.68512 -43.36628 28664 ft 441 kts 220°
2026-05-03 21:56 -18.70978 -43.38599 27590 ft 446 kts 220°
2026-05-03 21:57 -18.72630 -43.39920 26839 ft 450 kts 220°
2026-05-03 21:57 -18.75145 -43.41929 25710 ft 455 kts 220°
2026-05-03 21:57 -18.77683 -43.43956 24611 ft 459 kts 219°
2026-05-03 21:57 -18.80238 -43.45997 23514 ft 462 kts 219°
2026-05-03 21:58 -18.82817 -43.48047 22283 ft 465 kts 219°
2026-05-03 21:58 -18.85399 -43.50099 21421 ft 461 kts 219°
2026-05-03 21:58 -18.87949 -43.52124 20577 ft 457 kts 218°
2026-05-03 21:58 -18.90473 -43.54136 19741 ft 453 kts 218°
2026-05-03 21:59 -18.92982 -43.56141 18906 ft 451 kts 218°
2026-05-03 21:59 -18.95474 -43.58133 18195 ft 446 kts 218°
2026-05-03 21:59 -18.97946 -43.60110 17308 ft 444 kts 218°
2026-05-03 21:59 -19.00395 -43.62068 16500 ft 441 kts 218°
2026-05-03 22:00 -19.02825 -43.64001 15827 ft 435 kts 218°
2026-05-03 22:00 -19.05244 -43.65910 15114 ft 431 kts 218°
2026-05-03 22:00 -19.07607 -43.67767 14451 ft 427 kts 217°
2026-05-03 22:00 -19.09977 -43.69623 13807 ft 422 kts 217°
2026-05-03 22:01 -19.12326 -43.71462 13133 ft 417 kts 217°
2026-05-03 22:01 -19.14639 -43.73276 12515 ft 411 kts 217°
2026-05-03 22:01 -19.16919 -43.75066 11880 ft 405 kts 216°
2026-05-03 22:01 -19.19163 -43.76833 11440 ft 396 kts 216°
2026-05-03 22:02 -19.21319 -43.78538 11319 ft 378 kts 216°
2026-05-03 22:02 -19.23380 -43.80168 11201 ft 362 kts 216°
2026-05-03 22:02 -19.25352 -43.81735 11083 ft 347 kts 218°
2026-05-03 22:02 -19.27073 -43.83452 10956 ft 330 kts 226°
2026-05-03 22:03 -19.28596 -43.85165 10733 ft 311 kts 226°
2026-05-03 22:03 -19.30057 -43.86805 10328 ft 303 kts 225°
2026-05-03 22:03 -19.31500 -43.88424 10108 ft 301 kts 225°
2026-05-03 22:03 -19.32936 -43.90032 9967 ft 300 kts 225°
2026-05-03 22:04 -19.34371 -43.91638 9849 ft 300 kts 225°
2026-05-03 22:04 -19.35802 -43.93240 9718 ft 299 kts 225°
2026-05-03 22:04 -19.37231 -43.94840 9373 ft 301 kts 225°
2026-05-03 22:04 -19.38652 -43.96434 8671 ft 300 kts 225°
2026-05-03 22:05 -19.40055 -43.98007 8390 ft 284 kts 225°
2026-05-03 22:05 -19.41364 -43.99475 8232 ft 265 kts 225°
2026-05-03 22:05 -19.42598 -44.00864 8002 ft 252 kts 225°
2026-05-03 22:05 -19.43792 -44.02223 7831 ft 252 kts 226°
2026-05-03 22:06 -19.44973 -44.03628 7409 ft 258 kts 227°
2026-05-03 22:06 -19.46146 -44.05049 7028 ft 254 kts 227°
2026-05-03 22:06 -19.47296 -44.06445 6624 ft 248 kts 226°
2026-05-03 22:06 -19.48554 -44.07636 6267 ft 239 kts 204°
2026-05-03 22:07 -19.50105 -44.08061 5826 ft 231 kts 175°
2026-05-03 22:07 -19.51627 -44.07626 5386 ft 225 kts 146°
2026-05-03 22:07 -19.52817 -44.06629 5092 ft 213 kts 136°
2026-05-03 22:07 -19.53908 -44.05619 4900 ft 201 kts 136°
2026-05-03 22:08 -19.54924 -44.04681 4637 ft 186 kts 136°
2026-05-03 22:08 -19.55860 -44.03817 4408 ft 171 kts 136°
2026-05-03 22:08 -19.56729 -44.03015 4189 ft 160 kts 135°
2026-05-03 22:08 -19.57540 -44.02266 3983 ft 151 kts 136°
2026-05-03 22:09 -19.58323 -44.01542 3809 ft 148 kts 136°
2026-05-03 22:09 -19.59099 -44.00824 3628 ft 148 kts 136°
2026-05-03 22:09 -19.59863 -44.00119 3447 ft 147 kts 136°
2026-05-03 22:10 -19.61405 -43.98698 3082 ft 148 kts 137°
2026-05-03 22:10 -19.62173 -43.97981 2889 ft 147 kts 138°
2026-05-03 22:10 -19.62908 -43.97303 2809 ft 125 kts 139°
2026-05-03 22:10 -19.63373 -43.96877 2804 ft 47 kts 139°
2026-05-03 22:11 -19.63514 -43.96745 2802 ft 19 kts 136°
2026-05-03 22:11 -19.63579 -43.96619 2802 ft 20 kts 114°
2026-05-03 22:11 -19.63615 -43.96513 2803 ft 9 kts 108°
2026-05-03 22:11 -19.63638 -43.96445 2806 ft 10 kts 110°
2026-05-03 22:12 -19.63629 -43.96370 2804 ft 12 kts 46°
2026-05-03 22:12 -19.63560 -43.96329 2805 ft 11 kts 29°
2026-05-03 22:12 -19.63502 -43.96295 2803 ft 9 kts 28°
2026-05-03 22:12 -19.63452 -43.96280 2803 ft 6 kts 345°
2026-05-03 22:13 -19.63429 -43.96313 2803 ft 5 kts 297°
2026-05-03 22:13 -19.63416 -43.96339 2803 ft 3 kts 297°
2026-05-03 22:13 -19.63407 -43.96357 2803 ft 3 kts 297°
2026-05-03 22:13 -19.63387 -43.96398 2805 ft 7 kts 299°
2026-05-03 22:14 -19.63360 -43.96434 2803 ft 5 kts 317°
2026-05-03 22:14 -19.63340 -43.96428 2803 ft 2 kts 42°
2026-05-03 22:14 -19.63331 -43.96418 2803 ft 1 kts 47°
2026-05-03 22:14 -19.63323 -43.96408 2803 ft 4 kts 48°
2026-05-03 22:15 -19.63318 -43.96403 2803 ft 0 kts 49°